This demonstration page uses our WeatherBlox Daily Observations layout. Learn more.

Left ArrowRight Arrow

40.92945, -100.16068

Hourly Observations for September 4, 2019

Temp ( °F °C ) Dew Point ( °F °C ) Humidity (%) Winds ( mph kmh ) Pressure ( in mb ) Visibility ( mi km ) Precip ( " mm )
12:15 am 00:15 Clear 58 14.4 57 14 97 97 Calm 30.15 1021 10 16 0.00 0.00
12:35 am 00:35 Clear 57 13.8 57 13.8 100 100 NNW 5 7 30.16 1021 10 16 0.00 0.00
12:55 am 00:55 Clear 56 13.5 56 13.4 99 99 N 5 7 30.16 1021 10 16 0.00 0.00
1:15 am 01:15 Clear 57 13.9 56 13.5 97 97 N 3 6 30.16 1021 10 16 0.00 0.00
1:35 am 01:35 Clear 56 13.5 56 13.2 98 98 Calm 30.17 1022 10 16 0.00 0.00
1:55 am 01:55 Clear 56 13.4 56 13.2 99 99 Calm 30.17 1022 10 16 0.00 0.00
2:15 am 02:15 Clear 55 12.8 55 12.7 99 99 SW 6 9 30.18 1022 10 16 0.00 0.00
2:35 am 02:35 Clear 56 13.2 56 13.1 99 99 W 5 7 30.17 1022 10 16 0.00 0.00
2:55 am 02:55 Clear 56 13.2 56 13.2 100 100 Calm 30.17 1022 10 16 0.00 0.00
3:15 am 03:15 Clear 56 13.1 55 13 99 99 Calm 30.17 1022 10 16 0.00 0.00
3:35 am 03:35 Clear 55 12.5 55 12.5 100 100 Calm 30.17 1022 7 11 0.00 0.00
3:55 am 03:55 Clear 55 12.7 55 12.7 100 100 Calm 30.17 1022 10 16 0.00 0.00
4:15 am 04:15 Clear 54 12.2 54 12.2 100 100 NW 6 9 30.18 1022 10 16 0.00 0.00
4:35 am 04:35 Clear 54 12.4 54 12.4 100 100 NW 5 7 30.18 1022 10 16 0.00 0.00
4:55 am 04:55 Clear 54 12.2 54 12.2 100 100 Calm 30.18 1022 7 11 0.00 0.00
5:15 am 05:15 Clear 55 12.6 55 12.6 100 100 Calm 30.18 1022 10 16 0.00 0.00
5:35 am 05:35 Clear 54 12.2 54 12.2 100 100 Calm 30.18 1022 10 16 0.00 0.00
5:55 am 05:55 Clear 54 12 54 12 100 100 Calm 30.18 1022 10 16 0.00 0.00
6:15 am 06:15 Clear 53 11.5 53 11.5 100 100 Calm 30.19 1022 7 11 0.00 0.00
6:35 am 06:35 Clear with Mist and Fog 54 12 54 12 100 100 Calm 30.19 1022 5 8 0.00 0.00
6:55 am 06:55 Clear 54 12 54 12 100 100 Calm 30.19 1022 10 16 0.00 0.00
7:15 am 07:15 Partly Cloudy 53 11.9 53 11.9 100 100 Calm 30.20 1023 10 16 0.00 0.00
7:35 am 07:35 Mostly Cloudy 54 12.1 54 12.1 100 100 NW 3 6 30.21 1023 7 11 0.00 0.00
7:55 am 07:55 Cloudy 55 13 55 13 100 100 Calm 30.20 1023 7 11 0.00 0.00
8:15 am 08:15 Cloudy 57 13.8 57 13.7 99 99 Calm 30.21 1023 10 16 0.00 0.00
8:35 am 08:35 Mostly Cloudy 59 14.9 58 14.5 97 97 Calm 30.19 1022 10 16 0.00 0.00
8:55 am 08:55 Partly Cloudy 60 15.5 59 15.1 97 97 Calm 30.18 1022 10 16 0.00 0.00
9:15 am 09:15 Sunny 64 17.5 59 15 85 85 SSE 5 7 30.16 1021 10 16 0.00 0.00
9:35 am 09:35 Sunny 64 17.8 58 14.3 80 80 SE 7 11 30.15 1021 10 16 0.00 0.00
9:55 am 09:55 Sunny 66 18.7 58 14.6 77 77 SSE 5 7 30.14 1021 10 16 0.00 0.00
10:15 am 10:15 Sunny 67 19.5 58 14.3 72 72 SSE 8 13 30.14 1021 10 16 0.00 0.00
10:35 am 10:35 Sunny 67 19.2 57 14 72 72 SE 8 13 30.13 1020 10 16 0.00 0.00
10:55 am 10:55 Sunny 68 20.1 57 13.7 67 67 SSE 10 17 30.12 1020 10 16 0.00 0.00
11:15 am 11:15 Sunny 70 20.9 55 13 61 61 SE 12 19 30.11 1020 10 16 0.00 0.00
11:35 am 11:35 Sunny 72 22.1 57 13.9 60 60 SE 9 15 30.10 1019 10 16 0.00 0.00
11:55 am 11:55 Sunny 72 22.1 58 14.6 63 63 SSE 8 13 30.10 1019 10 16 0.00 0.00
12:15 pm 12:15 Sunny 74 23.1 60 15.3 62 62 SSE 9 15 30.09 1019 10 16 0.00 0.00
12:35 pm 12:35 Sunny 73 22.8 57 13.9 57 57 SE 10 17 30.09 1019 10 16 0.00 0.00
12:55 pm 12:55 Sunny 73 23 59 15 61 61 SE 8 13 30.09 1019 10 16 0.00 0.00
1:15 pm 13:15 Sunny 75 24.1 59 15.2 58 58 SSE 10 17 30.07 1018 10 16 0.00 0.00
1:35 pm 13:35 Sunny 76 24.4 59 14.9 56 56 SSE 12 19 30.06 1018 10 16 0.00 0.00
1:55 pm 13:55 Partly Cloudy 75 23.9 58 14.4 55 55 SSE 13 20 30.06 1018 10 16 0.00 0.00
2:15 pm 14:15 Cloudy 76 24.6 60 15.3 56 56 SE 9 15 30.05 1018 10 16 0.00 0.00
2:35 pm 14:35 Cloudy 76 24.6 60 15.4 57 57 SSE 14 22 30.04 1017 10 16 0.00 0.00
2:55 pm 14:55 Cloudy 76 24.6 58 14.6 54 54 SSE 15 24 30.03 1017 10 16 0.00 0.00
3:15 pm 15:15 Partly Cloudy 77 24.9 59 15 54 54 SE 13 20 30.02 1017 10 16 0.00 0.00
3:35 pm 15:35 Sunny 77 25.1 58 14.6 52 52 SSE 14 22 30.02 1017 10 16 0.00 0.00
3:55 pm 15:55 Partly Cloudy 77 24.9 59 15.1 55 55 SSE 14 22 30.01 1016 10 16 0.00 0.00
4:15 pm 16:15 Partly Cloudy 78 25.4 60 15.3 54 54 SSE 12 19 30.00 1016 10 16 0.00 0.00
4:35 pm 16:35 Sunny 78 25.8 61 15.9 54 54 SSE 12 19 29.98 1015 10 16 0.00 0.00
4:55 pm 16:55 Sunny 79 26.2 61 16 53 53 SSE 15 24 29.98 1015 10 16 0.00 0.00
5:15 pm 17:15 Sunny 79 26.2 60 15.7 52 52 SSE 14 22 29.97 1015 10 16 0.00 0.00
5:35 pm 17:35 Sunny 79 26.2 61 15.9 53 53 SE 16 26 29.97 1015 10 16 0.00 0.00
5:55 pm 17:55 Sunny 78 25.8 60 15.4 53 53 SSE 16 26 29.97 1015 10 16 0.00 0.00
6:15 pm 18:15 Sunny 78 25.6 60 15.7 54 54 SE 14 22 29.96 1015 10 16 0.00 0.00
6:35 pm 18:35 Sunny 77 25.2 61 16 57 57 SSE 10 17 29.97 1015 10 16 0.00 0.00
6:55 pm 18:55 Sunny 77 24.8 61 16.1 59 59 SE 12 19 29.96 1015 10 16 0.00 0.00
7:15 pm 19:15 Sunny 76 24.3 62 16.4 61 61 SE 8 13 29.97 1015 10 16 0.00 0.00
7:35 pm 19:35 Sunny 74 23.5 62 16.5 65 65 SE 9 15 29.97 1015 10 16 0.00 0.00
7:55 pm 19:55 Sunny 73 22.8 63 17 70 70 SE 8 13 29.98 1015 10 16 0.00 0.00
8:15 pm 20:15 Clear 71 21.8 63 17.1 75 75 SE 7 11 29.99 1015 10 16 0.00 0.00
8:35 pm 20:35 Clear 70 21.2 63 17.1 78 78 SE 8 13 29.98 1015 10 16 0.00 0.00
8:55 pm 20:55 Clear 69 20.8 63 17 79 79 SE 9 15 29.99 1015 10 16 0.00 0.00
9:15 pm 21:15 Clear 69 20.7 63 17 79 79 SE 9 15 29.99 1015 10 16 0.00 0.00
9:35 pm 21:35 Clear 69 20.3 63 17 81 81 SE 8 13 29.99 1016 10 16 0.00 0.00
9:55 pm 21:55 Clear 68 20 62 16.9 82 82 SE 9 15 29.99 1016 10 16 0.00 0.00
10:15 pm 22:15 Clear 67 19.7 62 16.8 83 83 SE 8 13 29.99 1016 10 16 0.00 0.00
10:35 pm 22:35 Clear 67 19.6 62 16.7 83 83 SE 9 15 30.00 1016 10 16 0.00 0.00
10:55 pm 22:55 Clear 67 19.6 62 16.6 83 83 SE 9 15 29.99 1015 10 16 0.00 0.00
11:15 pm 23:15 Clear 66 19.1 62 16.6 86 86 SE 8 13 29.99 1016 10 16 0.00 0.00
11:35 pm 23:35 Clear 66 19.1 62 16.6 86 86 SE 8 13 29.99 1016 10 16 0.00 0.00
11:55 pm 23:55 Clear 65 18.6 62 16.6 88 88 SE 7 11 29.98 1015 10 16 0.00 0.00

Powered by AerisWeather